Regional Weather Roundup
Issued by NWS

Home | Current Version | Previous Version | Text Only | Print | Product List | Glossary Off
Versions: 1 2 3 4 5 6 7 8 9 10 11 12 13 14 15 16 17 18 19 20 21 22 23 24 25 26 27 28 29 30 31 32 33 34 35 36 37 38 39 40 41 42 43 44 45 46 47 48 49 50

000
ASUS43 KFSD 230802
RWRSD

WEATHER ROUNDUP FOR SOUTH DAKOTA
NATIONAL WEATHER SERVICE SIOUX FALLS SD
300 AM CDT MON APR 23 2018

NOTE: "FAIR" INDICATES FEW OR NO CLOUDS BELOW 12,000 FEET WITH NO
SIGNIFICANT WEATHER AND/OR OBSTRUCTIONS TO VISIBILITY.


SDZ001>005-009-010-012>017-230900-
NORTHWEST AND NORTH CENTRAL SOUTH DAKOTA

CITY           SKY/WX    TMP DP  RH WIND       PRES   REMARKS
BUFFALO          N/A     47  35  63 NE9       30.03S
FAITH            N/A     43  38  82 SE13      30.09F
MOBRIDGE       CLEAR     41  34  76 SE9       30.11S
$$

SDZ012>016-024>037-041>051-057-063-072>074-230900-
SOUTHWEST AND SOUTH CENTRAL SOUTH DAKOTA

CITY           SKY/WX    TMP DP  RH WIND       PRES   REMARKS
RAPID CTY ARPT CLEAR     39  35  86 E3        30.08F
PIERRE         CLEAR     43  37  79 SE5       30.12F
CUSTER         CLEAR     36  29  75 NW3       30.13F
ELLSWORTH AFB  CLEAR     45  36  70 SW3       30.08F
PHILIP         CLEAR     42  36  79 CALM      30.11F
PINE RIDGE     CLEAR     47  37  68 S16       30.11F
SPEARFISH      FAIR      45  36  70 SE8       30.07F
WINNER         FAIR      45  35  68 S7        30.16S
$$

SDZ004>011-016>023-039-040-230900-
NORTHEAST SOUTH DAKOTA

CITY           SKY/WX    TMP DP  RH WIND       PRES   REMARKS
ABERDEEN       CLEAR     37  34  89 S6        30.18S
WATERTOWN      CLEAR     40  35  83 SE7       30.19S
BROOKINGS      CLEAR     39  35  86 CALM      30.21S
SISSETON         N/A     37  35  92 S6        30.18F
$$

SDZ017-020-022-023-036>040-048>070-230900-
SOUTHEAST SOUTH DAKOTA

CITY           SKY/WX    TMP DP  RH WIND       PRES   REMARKS
SIOUX FALLS    CLEAR     40  34  79 NE5       30.20S
HURON          CLEAR     41  37  86 SE6       30.18S
CHAMBERLAIN    CLEAR     42  40  95 SE6       30.16F
MITCHELL       CLEAR     43  39  86 SE7       30.19S
YANKTON        CLEAR     42  38  85 E5        30.19F
$$

ABBREVIATIONS USED IN REMARKS
   TC - TEMPERATURE IN CELSIUS
  WCI - WIND CHILL INDEX
   HX - HEAT INDEX
  VSB - VISIBILITY





USA.gov is the U.S. government's official web portal to all federal, state and local government web resources and services.